CZ-4 DEB, 26152

Orbit data source: Space-Track

CZ-4 DEB, 26152 is space debris in SSO originally from a launch on Thu, 14 Oct 1999 UTC launched from the Taiyaun Space Center, China (TSC). Debris objects in space refer to the collection of defunct objects orbiting the Earth. Examples of debris include non-operational satellites, rocket bodies, and fragments generated from explosions, collisions, or faulty payload assembly.

Loading next visibility...
Identifier
26152, 1999-057AN
Orbit
SSO
Country
Flag of CNCN / PRC
Related business
Manufacturer
Unknown
Mission
Spacecraft
Bus & Motor
Unknown
Mass
Unknown
Launch date (UTC)
1999-10-14 (26 years ago)
Launch vehicle
Unknown
Launch site
Taiyaun Space Center, China (TSC)
Object type
Payload
Rocket body
Debris
Shape & HBR
Unknown
Radar Cross Section
Small (<0.1 m²)

Expand to show TLE details & history
Last TLE update: 23 hours ago

TLE from 23 hours ago
0 CZ-4 DEB
1 26152U 99057AN  25242.06547859  .00000577  00000-0  53666-3 0  9993
2 26152  99.1564 273.0716 0517829 315.6096  65.3802 13.38124791239164
Epoch: 2025-08-30T01:34Z
TLE epoch observation values (Epoch: 2025-08-30T01:34:17.35Z)
Latitude
26.19571°
Longitude
-93.5302°
Altitude
974.793 km
Speed
7.437 km/s
True Right ascension
17h 54m 11s
True Declination
26° 03' 50"
Sunlit
Object was in daylight at epoch
Visualization orbit readout
Latitude
Unknown
Longitude
Unknown
Altitude
Unknown
Speed
Unknown
Apparent Right ascension
Unknown
Apparent Declination
Unknown
Sunlit
N/A
Visualization observer readout
Local Sidereal Time
16:12:33
Azimuth
Unknown
Elevation
Unknown
Doppler factor
Unknown
Orbital elements
Apogee altitude
1,501.493 km
Perigee altitude
725.611 km
Semi-major axis
7,491.689 km
Eccentricity
0.05178
Inclination
99.1564°
RAAN
273.0716°
Arg. of periapsis
315.6096°
True anomaly
70.91532°
Mean anomaly
65.3802°
Eccentric anomaly
68.13369°
Mean motion
3.34714 °/min
Orbital period
107.55 mins
BSTAR
0.00053666
Loading maneuver chart data...
Computing Atmospheric mass density...
Loading historical data...
Loading historical data...
Loading historical data...
Loading historical data...
Loading historical data...
Loading historical data...
Loading historical data...

Documentation

Showing up to 5 results
|